[[{"header":{"parameterUnit":"m.s-1","parameterCategory":1,"la1":30.2991,"la2":30.254,"lo1":-89.0895,"lo2":-89.0444,"dy":0.0017,"dx":0.0017,"nx":28,"ny":28,"refTime":"2024-12-09T09:00:00:Z","depth":0,"parameterNumber":2,"parameterNumberName":"U-component_of_WINDS"},"data":[0,0,0,0,0,0,0,0,0,0,0,0,0,0,0,0,0,0,0,0,0,0,0,0,0,0,0,0,0,0,0,0,0,0,0,0,0,0,0,0,0,0,0,0,0,0,0,0,0,0,0,0,0,0,0,0,0,0,3.5744,3.5744,0,3.573,3.573,3.5729,3.5673,3.5672,3.567,3.5669,3.5658,3.5659,3.5659,0,0,0,0,0,0,0,0,0,0,0,0,0,3.5726,3.5727,3.5744,3.5744,3.5743,3.573,3.573,3.5729,3.5673,3.5672,3.567,3.5669,3.5657,3.5658,3.566,0,0,0,0,0,0,0,0,0,0,0,0,0,3.5725,3.5727,3.5744,3.5714,3.5711,3.573,3.573,3.5729,3.5674,3.5672,3.567,3.5668,3.5657,3.5658,3.566,3.5707,0,0,3.5664,3.5664,0,0,0,0,0,0,0,0,3.5725,3.5726,3.5718,3.5716,3.5713,3.5701,3.5719,3.5722,3.5674,3.5688,3.5669,3.5667,3.5674,3.5674,3.5675,3.5707,3.5706,3.5664,3.5665,3.5665,3.5666,0,0,0,0,0,0,0,3.5726,3.5726,3.5738,3.5718,3.5715,3.5702,3.57,3.5719,3.5692,3.5687,3.5682,3.5681,3.5672,3.5674,3.5675,3.5706,3.5664,3.5665,3.5666,3.5667,3.5778,3.578,0,0,0,0,0,0,3.5729,3.5727,3.5739,3.5738,3.5714,3.5704,3.5702,3.5707,3.5692,3.5688,3.5683,3.5679,3.5673,3.5673,3.5674,3.5729,3.5665,3.5667,3.5667,3.5775,3.5778,3.578,0,0,0,0,0,0,3.5729,3.5731,3.5739,3.5731,3.5731,3.5707,3.5713,3.5708,3.571,3.5689,3.5684,3.569,3.5671,3.5672,3.57,3.5728,3.5667,3.5669,3.5773,3.5776,3.5779,3.584,0,0,0,0,0,0,3.5729,3.5731,3.5748,3.5732,3.5732,3.5764,3.5715,3.5709,3.5712,3.5706,3.5694,3.5691,3.567,3.5698,3.5701,3.5729,3.567,3.577,3.5774,3.5778,3.5836,3.5845,3.5853,0,0,0,0,0,3.5728,3.5766,3.5749,3.5751,3.5752,3.5766,3.5766,3.574,3.5714,3.5732,3.5719,3.5691,3.5725,3.5701,3.5704,3.5733,3.5768,3.5773,3.5778,3.5832,3.5843,3.5853,0,0,0,0,0,0,3.5787,3.5763,3.5744,3.5777,3.5774,3.5756,3.5777,3.5753,3.5758,3.5752,3.5722,3.5719,3.5752,3.5745,3.5719,3.5779,3.5742,3.5748,3.5782,3.5793,3.5802,3.5802,3.5671,0,0,0,0,0,3.5803,3.5815,3.5794,3.5826,3.5825,3.5802,3.5807,3.5787,3.5783,3.5781,3.577,3.5768,3.5778,3.5785,3.5793,3.5835,3.5832,3.5857,3.5866,3.5873,3.5878,3.5901,3.5912,3.5796,3.5796,3.5796,0,0,3.5838,3.5827,3.5836,3.5837,3.5832,3.5846,3.5801,3.5817,3.5828,3.5784,3.5809,3.5801,3.5797,3.5832,3.5847,3.5827,3.591,3.5879,3.5885,3.5886,3.5907,3.5918,3.5927,3.5799,3.5799,3.5798,0,0,3.5908,3.59,3.5926,3.5922,3.5915,3.5899,3.5906,3.5892,3.5885,3.5909,3.5877,3.589,3.5908,3.5906,3.5908,3.598,3.5955,3.5984,3.603,3.6052,3.6061,3.6069,3.6095,3.6105,3.5989,3.5989,3.5989,0,3.5952,3.597,3.5942,3.5961,3.5963,3.5924,3.5951,3.5949,3.5945,3.5948,3.5927,3.595,3.5944,3.5978,3.5996,3.5999,3.6006,3.5984,3.6062,3.607,3.6077,3.6101,3.6111,3.5992,3.5992,3.5992,3.5991,0,3.6025,3.6039,3.6061,3.6058,3.6062,3.6085,3.6062,3.6071,3.6052,3.6039,3.6066,3.6058,3.6064,3.6071,3.6053,3.6104,3.6092,3.6067,3.6029,3.6092,3.6114,3.6123,3.5998,3.5996,3.5995,3.5994,0,0,3.613,3.6112,3.612,3.6119,3.6109,3.612,3.6142,3.6147,3.6156,3.6156,3.6174,3.6191,3.6168,3.617,3.6152,3.6172,3.623,3.6144,3.6143,3.616,3.6286,3.6305,3.6316,3.6214,3.6215,3.6217,3.6287,0,3.6196,3.6231,3.6207,3.6247,3.626,3.6224,3.6244,3.6241,3.623,3.6241,3.623,3.6242,3.6211,3.6212,3.623,3.6219,3.6255,3.6214,3.6231,3.6232,3.6233,3.6328,3.6347,3.6414,3.6295,3.6297,3.6298,0,3.6278,3.6281,3.6321,3.631,3.6315,3.6332,3.6336,3.6347,3.6344,3.6335,3.6338,3.6315,3.6338,3.6301,3.6332,3.6305,3.6311,3.6307,3.6309,3.6309,3.6268,3.6331,3.6434,3.6444,3.6312,3.631,3.6309,0,3.6351,3.6365,3.6391,3.6391,3.6378,3.6392,3.6387,3.6382,3.6387,3.6392,3.6395,3.6403,3.6407,3.6413,3.6394,3.6369,3.6429,3.639,3.6422,3.6423,3.6436,3.6435,3.6541,3.6441,3.6441,3.6441,3.644,0,3.6427,3.6453,3.6423,3.6439,3.6468,3.6442,3.6472,3.6464,3.646,3.6475,3.6446,3.6461,3.6435,3.6448,3.6433,3.6462,3.6464,3.6458,3.6454,3.646,3.6461,3.6463,3.6458,3.6443,3.6443,3.6442,3.6442,0,3.6512,3.6493,3.6519,3.6505,3.6503,3.6525,3.6514,3.6529,3.6517,3.6537,3.654,3.6522,3.6536,3.6517,3.653,3.652,3.6559,3.6548,3.656,3.6557,3.659,3.6587,3.6701,3.6715,3.6606,3.6607,3.6608,0,3.6562,3.6581,3.657,3.6577,3.6574,3.6587,3.6592,3.6568,3.6575,3.6574,3.659,3.6602,3.6609,3.6634,3.6622,3.6632,3.6621,3.6661,3.6622,3.6629,3.6622,3.662,3.6623,3.6668,3.6669,3.667,3.6671,0,3.6653,3.6642,3.665,3.6656,3.6663,3.6666,3.6668,3.6676,3.6651,3.6661,3.6674,3.668,3.6693,3.6705,3.6712,3.671,3.6687,3.6684,3.6692,3.6698,3.6704,3.6701,3.6581,3.6681,3.668,3.6679,3.6679,3.6678,3.6721,3.6737,3.6732,3.6742,3.6741,3.6743,3.6757,3.6747,3.6757,3.6765,3.6751,3.6768,3.6767,3.6774,3.6774,3.6788,3.6771,3.6783,3.6786,3.6789,3.6794,3.6703,3.6789,3.6789,3.6789,3.6789,3.6788,0,3.681,3.6805,3.6815,3.6818,3.6827,3.6804,3.6805,3.6814,3.683,3.6829,3.6838,3.6854,3.6866,3.6857,3.6867,3.6881,3.6871,3.6884,3.6883,3.6882,3.6808,3.68,3.6892,3.6892,3.6892,3.6892,3.6892,3.6892,3.6858,3.6883,3.6873,3.6898,3.6894,3.691,3.6912,3.6915,3.6914,3.6934,3.6943,3.6937,3.6933,3.6943,3.6954,3.6951,3.6956,3.6974,3.6967,3.6898,3.6888,3.6878,3.687,3.6975,3.6975,3.704,3.704,3.7041]},{"header":{"parameterUnit":"m.s-1","parameterCategory":1,"la1":30.2991,"la2":30.254,"lo1":-89.0895,"lo2":-89.0444,"dy":0.0017,"dx":0.0017,"nx":28,"ny":28,"refTime":"2024-12-09T09:00:00:Z","depth":0,"parameterNumber":3,"parameterNumberName":"V-component_of_WINDS"},"data":[0,0,0,0,0,0,0,0,0,0,0,0,0,0,0,0,0,0,0,0,0,0,0,0,0,0,0,0,0,0,0,0,0,0,0,0,0,0,0,0,0,0,0,0,0,0,0,0,0,0,0,0,0,0,0,0,0,0,-6.4769,-6.477,0,-6.4885,-6.4886,-6.4887,-6.488,-6.4878,-6.4876,-6.4875,-6.4989,-6.4994,-6.4998,0,0,0,0,0,0,0,0,0,0,0,0,0,-6.454,-6.4544,-6.4769,-6.477,-6.4772,-6.4885,-6.4886,-6.4888,-6.488,-6.4878,-6.4876,-6.4874,-6.4988,-6.4993,-6.4999,0,0,0,0,0,0,0,0,0,0,0,0,0,-6.4646,-6.4546,-6.4768,-6.4782,-6.4784,-6.4884,-6.4886,-6.4888,-6.4881,-6.4878,-6.4875,-6.4873,-6.4986,-6.4993,-6.5,-6.5093,0,0,-6.5021,-6.5024,0,0,0,0,0,0,0,0,-6.464,-6.4654,-6.4778,-6.4781,-6.4784,-6.4865,-6.4847,-6.4957,-6.4881,-6.4844,-6.4875,-6.4872,-6.495,-6.496,-6.4987,-6.5099,-6.5103,-6.5021,-6.5026,-6.5029,-6.5031,0,0,0,0,0,0,0,-6.4632,-6.4649,-6.4814,-6.478,-6.4783,-6.4781,-6.4794,-6.4868,-6.4909,-6.4847,-6.4847,-6.4861,-6.4951,-6.498,-6.4989,-6.5105,-6.5021,-6.5027,-6.5032,-6.5034,-6.5304,-6.5307,0,0,0,0,0,0,-6.4623,-6.4643,-6.4811,-6.4818,-6.4704,-6.4788,-6.4801,-6.4842,-6.4909,-6.4917,-6.4863,-6.486,-6.497,-6.4981,-6.4993,-6.511,-6.5029,-6.5035,-6.5039,-6.5301,-6.5305,-6.5308,0,0,0,0,0,0,-6.4618,-6.4638,-6.4806,-6.4731,-6.4752,-6.4794,-6.484,-6.4845,-6.4875,-6.4921,-6.4928,-6.4885,-6.4968,-6.4984,-6.507,-6.5114,-6.5038,-6.5045,-6.5297,-6.5302,-6.5306,-6.5343,0,0,0,0,0,0,-6.4611,-6.4636,-6.4672,-6.4732,-6.4756,-6.4881,-6.4842,-6.4849,-6.4887,-6.4884,-6.4944,-6.4951,-6.4967,-6.506,-6.5077,-6.5122,-6.505,-6.5294,-6.53,-6.5305,-6.5338,-6.5348,-6.5357,0,0,0,0,0,-6.4603,-6.4675,-6.4674,-6.4694,-6.4802,-6.4883,-6.4897,-6.4916,-6.489,-6.4927,-6.4958,-6.4949,-6.5107,-6.5068,-6.5088,-6.5136,-6.5291,-6.5298,-6.5304,-6.5334,-6.5346,-6.5357,0,0,0,0,0,0,-6.4617,-6.4683,-6.4682,-6.4776,-6.4825,-6.4882,-6.4928,-6.4928,-6.4983,-6.4978,-6.4997,-6.5011,-6.5098,-6.5125,-6.5082,-6.5232,-6.5195,-6.5206,-6.5211,-6.5223,-6.5232,-6.5224,-6.5056,0,0,0,0,0,-6.4632,-6.4693,-6.4747,-6.4825,-6.485,-6.4885,-6.4921,-6.4932,-6.4982,-6.5002,-6.5038,-6.5087,-6.5148,-6.5187,-6.5245,-6.5342,-6.5356,-6.5385,-6.5395,-6.5402,-6.5411,-6.5468,-6.5483,-6.533,-6.533,-6.533,0,0,-6.4661,-6.4705,-6.4742,-6.4829,-6.4868,-6.4931,-6.4902,-6.4969,-6.5017,-6.5011,-6.5096,-6.5125,-6.518,-6.5274,-6.5316,-6.5299,-6.5457,-6.5411,-6.5416,-6.5422,-6.5477,-6.5491,-6.5504,-6.5335,-6.5334,-6.5333,0,0,-6.4748,-6.4787,-6.4858,-6.4898,-6.4958,-6.4982,-6.5,-6.5059,-6.5078,-6.5164,-6.5163,-6.5219,-6.5322,-6.5363,-6.5398,-6.5505,-6.5501,-6.5524,-6.5573,-6.5628,-6.564,-6.5651,-6.5692,-6.5706,-6.5533,-6.5533,-6.5533,0,-6.4777,-6.4873,-6.4894,-6.4963,-6.5003,-6.5004,-6.5077,-6.5114,-6.519,-6.5217,-6.5197,-6.533,-6.5367,-6.5472,-6.5499,-6.5526,-6.5547,-6.5517,-6.5637,-6.5648,-6.5658,-6.5698,-6.5713,-6.5535,-6.5535,-6.5535,-6.5535,0,-6.4907,-6.4974,-6.5024,-6.51,-6.5145,-6.5215,-6.5247,-6.529,-6.5298,-6.5325,-6.5414,-6.5459,-6.5528,-6.5554,-6.556,-6.5661,-6.5649,-6.5633,-6.5596,-6.5675,-6.5712,-6.5727,-6.5539,-6.5538,-6.5537,-6.5537,0,0,-6.5003,-6.5093,-6.5111,-6.5147,-6.5216,-6.5268,-6.534,-6.541,-6.5448,-6.5501,-6.5562,-6.5652,-6.564,-6.5679,-6.569,-6.5739,-6.5825,-6.5718,-6.5719,-6.5738,-6.5942,-6.5954,-6.5971,-6.5823,-6.5826,-6.5828,-6.5938,0,-6.5098,-6.5226,-6.5249,-6.5362,-6.5425,-6.543,-6.5493,-6.5542,-6.557,-6.5628,-6.5657,-6.5722,-6.5699,-6.5723,-6.5772,-6.5804,-6.5867,-6.5797,-6.5881,-6.5884,-6.5868,-6.599,-6.6002,-6.6103,-6.5952,-6.5955,-6.5956,0,-6.5225,-6.5285,-6.5404,-6.5469,-6.5496,-6.5552,-6.5621,-6.5676,-6.5733,-6.575,-6.5796,-6.5804,-6.588,-6.5841,-6.5946,-6.5898,-6.5935,-6.5957,-6.5961,-6.597,-6.5925,-6.6003,-6.6136,-6.6151,-6.5979,-6.5977,-6.5975,0,-6.5286,-6.5396,-6.5483,-6.5513,-6.559,-6.563,-6.5663,-6.5718,-6.576,-6.582,-6.5848,-6.5914,-6.5951,-6.6003,-6.6029,-6.5998,-6.6134,-6.6096,-6.6151,-6.6151,-6.6179,-6.6177,-6.6321,-6.6201,-6.6201,-6.6201,-6.62,0,-6.539,-6.5463,-6.5512,-6.5565,-6.5649,-6.5675,-6.5757,-6.5789,-6.5839,-6.5899,-6.5906,-6.5963,-6.5994,-6.6055,-6.6076,-6.6162,-6.6178,-6.6194,-6.6199,-6.6194,-6.6193,-6.6218,-6.6212,-6.6205,-6.6204,-6.6203,-6.6202,0,-6.5471,-6.5506,-6.5602,-6.5668,-6.5687,-6.5746,-6.5802,-6.5855,-6.5884,-6.5961,-6.598,-6.6025,-6.6098,-6.613,-6.6219,-6.6233,-6.6333,-6.6331,-6.6314,-6.6316,-6.637,-6.6365,-6.6535,-6.656,-6.6423,-6.6424,-6.6425,0,-6.5535,-6.5593,-6.5667,-6.5709,-6.5745,-6.5811,-6.5856,-6.5885,-6.5931,-6.6003,-6.6048,-6.6122,-6.6182,-6.6299,-6.634,-6.6409,-6.641,-6.6466,-6.642,-6.6415,-6.6414,-6.6411,-6.6418,-6.6473,-6.6475,-6.6476,-6.6477,0,-6.5647,-6.5663,-6.5727,-6.5799,-6.5852,-6.591,-6.5965,-6.5999,-6.6038,-6.6089,-6.6165,-6.6213,-6.6307,-6.638,-6.6453,-6.6488,-6.649,-6.6491,-6.6508,-6.6504,-6.6492,-6.6502,-6.6338,-6.6487,-6.6486,-6.6485,-6.6485,-6.6484,-6.5723,-6.5776,-6.5837,-6.591,-6.5956,-6.6009,-6.6063,-6.6101,-6.6166,-6.6245,-6.6259,-6.6341,-6.64,-6.6499,-6.6536,-6.6602,-6.6588,-6.6611,-6.6617,-6.6623,-6.6628,-6.6482,-6.6614,-6.6614,-6.6614,-6.6614,-6.6614,0,-6.5837,-6.5878,-6.5944,-6.6024,-6.6082,-6.6081,-6.6144,-6.6193,-6.6265,-6.6321,-6.6383,-6.6472,-6.6545,-6.6594,-6.6668,-6.6711,-6.6714,-6.673,-6.6727,-6.6736,-6.6635,-6.6614,-6.6726,-6.6726,-6.6726,-6.6726,-6.6726,-6.6726,-6.5902,-6.5993,-6.6017,-6.6131,-6.6171,-6.6253,-6.629,-6.634,-6.6386,-6.6486,-6.6548,-6.658,-6.6634,-6.6713,-6.6781,-6.6793,-6.6821,-6.6837,-6.6849,-6.6754,-6.6742,-6.6731,-6.6712,-6.6843,-6.6843,-6.6945,-6.6946,-6.6947]}]]